| time (UTC) | temp F | wind direction | speed MPH | gust MPH | rain 1hr in | rain 24hr in | rain mn in | humidity % | barometer mb |
| 20260904163627 | 69 | 5 | 0.0 | 0.0 | 0.00 | 0.00 | 0.00 | 82 | 1008.5 |
| 20260904162128 | 68 | 348 | 0.0 | 4.0 | 0.00 | 0.00 | 0.00 | 83 | 1008.5 |
| 20260904161122 | 66 | 333 | 0.0 | 0.0 | 0.00 | 0.00 | 0.00 | 88 | 1008.5 |
| 20260904160622 | 66 | 333 | 0.0 | 0.0 | 0.00 | 0.00 | 0.00 | 88 | 1008.5 |
| 20260904155618 | 66 | 331 | 0.0 | 0.0 | 0.00 | 0.00 | 0.00 | 91 | 1008.5 |
| 20260904155114 | 65 | 331 | 0.0 | 0.0 | 0.00 | 0.00 | 0.00 | 91 | 1008.5 |
| 20260904154613 | 65 | 331 | 0.0 | 0.0 | 0.00 | 0.00 | 0.00 | 91 | 1008.5 |
| 20260904153605 | 65 | 331 | 0.0 | 0.0 | 0.00 | 0.00 | 0.00 | 92 | 1008.5 |
| 20260904153102 | 65 | 331 | 0.0 | 0.0 | 0.00 | 0.00 | 0.00 | 93 | 1008.5 |
| 20260904152559 | 65 | 321 | 0.0 | 0.0 | 0.00 | 0.00 | 0.00 | 94 | 1008.5 |
| 20260904152056 | 64 | 321 | 0.0 | 0.0 | 0.00 | 0.00 | 0.00 | 94 | 1008.5 |
| 20260904151552 | 64 | 321 | 0.0 | 0.0 | 0.00 | 0.00 | 0.00 | 94 | 1008.5 |
| 20260904150550 | 64 | 321 | 0.0 | 0.0 | 0.00 | 0.00 | 0.00 | 94 | 1008.5 |
| 20260904145045 | 63 | 321 | 0.0 | 0.0 | 0.00 | 0.00 | 0.00 | 94 | 1008.4 |
| 20260904144542 | 63 | 321 | 0.0 | 0.0 | 0.00 | 0.00 | 0.00 | 95 | 1008.4 |
| 20260904144043 | 63 | 321 | 0.0 | 0.0 | 0.00 | 0.00 | 0.00 | 95 | 1008.3 |
| 20260904143044 | 63 | 321 | 0.0 | 0.0 | 0.00 | 0.00 | 0.00 | 94 | 1008.3 |
| 20260904142038 | 63 | 321 | 0.0 | 0.0 | 0.00 | 0.00 | 0.00 | 94 | 1008.2 |
| 20260904141537 | 63 | 321 | 0.0 | 0.0 | 0.00 | 0.00 | 0.00 | 95 | 1008.2 |
| 20260904141037 | 63 | 321 | 0.0 | 0.0 | 0.00 | 0.00 | 0.00 | 95 | 1008.0 |
| 20260904140532 | 62 | 321 | 0.0 | 0.0 | 0.00 | 0.00 | 0.00 | 95 | 1007.9 |
| 20260904140032 | 62 | 321 | 0.0 | 0.0 | 0.00 | 0.00 | 0.00 | 94 | 1007.9 |
| 20260904135529 | 62 | 321 | 0.0 | 0.0 | 0.00 | 0.00 | 0.00 | 94 | 1007.9 |
| 20260904135029 | 62 | 321 | 0.0 | 0.0 | 0.00 | 0.00 | 0.00 | 94 | 1007.9 |
| 20260904134526 | 62 | 321 | 0.0 | 0.0 | 0.00 | 0.00 | 0.00 | 94 | 1007.9 |
| 20260904134030 | 62 | 321 | 0.0 | 0.0 | 0.00 | 0.00 | 0.00 | 94 | 1007.9 |
| 20260904133520 | 62 | 321 | 0.0 | 1.0 | 0.00 | 0.00 | 0.00 | 94 | 1007.9 |
| 20260904133016 | 63 | 321 | 0.0 | 1.0 | 0.00 | 0.00 | 0.00 | 94 | 1007.9 |
| 20260904132515 | 63 | 321 | 0.0 | 0.0 | 0.00 | 0.00 | 0.00 | 94 | 1007.8 |
| 20260904132007 | 63 | 321 | 0.0 | 0.0 | 0.00 | 0.00 | 0.00 | 94 | 1007.8 |
| 20260904131505 | 63 | 321 | 0.0 | 0.0 | 0.00 | 0.00 | 0.00 | 94 | 1007.8 |
| 20260904131000 | 63 | 321 | 0.0 | 0.0 | 0.00 | 0.00 | 0.00 | 94 | 1007.9 |
| 20260904130454 | 63 | 321 | 0.0 | 0.0 | 0.00 | 0.00 | 0.00 | 93 | 1007.9 |
| 20260904125951 | 63 | 321 | 0.0 | 0.0 | 0.00 | 0.00 | 0.00 | 93 | 1007.9 |
| 20260904124448 | 63 | 321 | 0.0 | 0.0 | 0.00 | 0.00 | 0.00 | 93 | 1007.6 |
| 20260904123441 | 63 | 321 | 0.0 | 0.0 | 0.00 | 0.00 | 0.00 | 93 | 1007.6 |
| 20260904122942 | 63 | 321 | 0.0 | 0.0 | 0.00 | 0.00 | 0.00 | 93 | 1007.6 |
| 20260904122438 | 63 | 321 | 0.0 | 0.0 | 0.00 | 0.00 | 0.00 | 93 | 1007.6 |
| 20260904121433 | 63 | 321 | 0.0 | 0.0 | 0.00 | 0.00 | 0.00 | 93 | 1007.6 |
| 20260904120928 | 63 | 321 | 0.0 | 0.0 | 0.00 | 0.00 | 0.00 | 93 | 1007.7 |
| 20260904120429 | 63 | 321 | 0.0 | 0.0 | 0.00 | 0.00 | 0.00 | 93 | 1007.7 |
| 20260904115924 | 63 | 321 | 0.0 | 0.0 | 0.00 | 0.00 | 0.00 | 93 | 1007.7 |
| 20260904114918 | 63 | 321 | 0.0 | 1.0 | 0.00 | 0.00 | 0.00 | 93 | 1007.7 |
| 20260904114415 | 63 | 321 | 0.0 | 1.0 | 0.00 | 0.00 | 0.00 | 93 | 1007.7 |
| 20260904113915 | 63 | 321 | 0.0 | 1.0 | 0.00 | 0.00 | 0.00 | 93 | 1007.8 |
| 20260904113415 | 63 | 321 | 0.0 | 0.0 | 0.00 | 0.00 | 0.00 | 93 | 1007.8 |
| 20260904112917 | 63 | 321 | 0.0 | 0.0 | 0.00 | 0.00 | 0.00 | 93 | 1007.8 |
| 20260904112408 | 63 | 321 | 0.0 | 0.0 | 0.00 | 0.00 | 0.00 | 93 | 1007.6 |
| 20260904110859 | 63 | 321 | 0.0 | 0.0 | 0.00 | 0.00 | 0.00 | 93 | 1007.6 |
| 20260904110400 | 63 | 321 | 0.0 | 0.0 | 0.00 | 0.00 | 0.00 | 93 | 1007.6 |
| 20260904105856 | 63 | 321 | 0.0 | 0.0 | 0.00 | 0.00 | 0.00 | 93 | 1007.5 |
| 20260904104349 | 63 | 321 | 0.0 | 2.0 | 0.00 | 0.00 | 0.00 | 93 | 1007.5 |
| 20260904103842 | 63 | 321 | 1.0 | 2.0 | 0.00 | 0.00 | 0.00 | 92 | 1007.5 |
| 20260904103339 | 63 | 321 | 0.0 | 2.0 | 0.00 | 0.00 | 0.00 | 92 | 1007.5 |
| 20260904102331 | 63 | 321 | 0.0 | 2.0 | 0.00 | 0.00 | 0.00 | 92 | 1007.5 |
| 20260904101827 | 63 | 321 | 0.0 | 0.0 | 0.00 | 0.00 | 0.00 | 92 | 1007.5 |
| 20260904101328 | 63 | 321 | 0.0 | 0.0 | 0.00 | 0.00 | 0.00 | 92 | 1007.5 |
| 20260904100822 | 63 | 321 | 0.0 | 0.0 | 0.00 | 0.00 | 0.00 | 92 | 1007.5 |
| 20260904100319 | 63 | 321 | 0.0 | 1.0 | 0.00 | 0.00 | 0.00 | 92 | 1007.5 |
| 20260904095820 | 63 | 321 | 0.0 | 1.0 | 0.00 | 0.00 | 0.00 | 92 | 1007.5 |
| 20260904095320 | 63 | 321 | 0.0 | 1.0 | 0.00 | 0.00 | 0.00 | 91 | 1007.5 |
| 20260904094824 | 63 | 321 | 0.0 | 2.0 | 0.00 | 0.00 | 0.00 | 91 | 1007.5 |
| 20260904094314 | 63 | 321 | 0.0 | 2.0 | 0.00 | 0.00 | 0.00 | 91 | 1007.5 |
| 20260904093816 | 63 | 321 | 0.0 | 3.0 | 0.00 | 0.00 | 0.00 | 91 | 1007.5 |
| 20260904093316 | 64 | 321 | 0.0 | 3.0 | 0.00 | 0.00 | 0.00 | 91 | 1007.5 |
| 20260904092305 | 63 | 321 | 0.0 | 1.0 | 0.00 | 0.00 | 0.00 | 91 | 1007.5 |
| 20260904091757 | 63 | 321 | 0.0 | 2.0 | 0.00 | 0.00 | 0.00 | 91 | 1007.5 |
| 20260904091258 | 63 | 321 | 0.0 | 2.0 | 0.00 | 0.00 | 0.00 | 91 | 1007.5 |
| 20260904090752 | 63 | 321 | 0.0 | 2.0 | 0.00 | 0.00 | 0.00 | 91 | 1007.5 |
| 20260904085753 | 63 | 321 | 0.0 | 2.0 | 0.00 | 0.00 | 0.00 | 90 | 1007.5 |
| 20260904084744 | 63 | 321 | 0.0 | 2.0 | 0.00 | 0.00 | 0.00 | 91 | 1007.5 |
| 20260904084244 | 63 | 321 | 0.0 | 0.0 | 0.00 | 0.00 | 0.00 | 91 | 1007.8 |
| 20260904083743 | 63 | 321 | 0.0 | 1.0 | 0.00 | 0.00 | 0.00 | 90 | 1007.8 |
| 20260904083243 | 63 | 321 | 0.0 | 1.0 | 0.00 | 0.00 | 0.00 | 90 | 1007.8 |
| 20260904082740 | 63 | 321 | 0.0 | 1.0 | 0.00 | 0.00 | 0.00 | 90 | 1007.9 |
| 20260904082243 | 63 | 321 | 0.0 | 1.0 | 0.00 | 0.00 | 0.00 | 90 | 1007.9 |
| 20260904081741 | 63 | 321 | 0.0 | 1.0 | 0.00 | 0.00 | 0.00 | 90 | 1007.9 |
| 20260904081233 | 63 | 321 | 0.0 | 1.0 | 0.00 | 0.00 | 0.00 | 90 | 1008.0 |
| 20260904080733 | 63 | 321 | 0.0 | 2.0 | 0.00 | 0.00 | 0.00 | 90 | 1008.0 |
| 20260904080233 | 63 | 321 | 0.0 | 2.0 | 0.00 | 0.00 | 0.00 | 90 | 1008.0 |
| 20260904075724 | 63 | 321 | 0.0 | 1.0 | 0.00 | 0.00 | 0.00 | 90 | 1008.0 |
| 20260904075218 | 63 | 321 | 0.0 | 1.0 | 0.00 | 0.00 | 0.00 | 90 | 1008.0 |
| 20260904074718 | 63 | 321 | 0.0 | 1.0 | 0.00 | 0.00 | 0.00 | 90 | 1008.0 |
| 20260904073714 | 63 | 321 | 1.0 | 3.0 | 0.00 | 0.00 | 0.00 | 90 | 1008.0 |
| 20260904073213 | 63 | 321 | 1.0 | 3.0 | 0.00 | 0.00 | 0.00 | 90 | 1008.0 |
| 20260904072707 | 63 | 321 | 0.0 | 3.0 | 0.00 | 0.00 | 0.00 | 90 | 1008.0 |
| 20260904072208 | 63 | 320 | 0.0 | 0.0 | 0.00 | 0.00 | 0.00 | 90 | 1008.0 |
| 20260904071708 | 63 | 320 | 0.0 | 0.0 | 0.00 | 0.00 | 0.00 | 90 | 1008.0 |
| 20260904071206 | 63 | 320 | 0.0 | 0.0 | 0.00 | 0.00 | 0.00 | 89 | 1008.0 |
| 20260904070203 | 63 | 320 | 0.0 | 0.0 | 0.00 | 0.00 | 0.00 | 89 | 1008.0 |
| 20260904065154 | 63 | 320 | 0.0 | 0.0 | 0.00 | 0.00 | 0.00 | 89 | 1008.0 |
| 20260904064152 | 63 | 320 | 0.0 | 0.0 | 0.00 | 0.00 | 0.00 | 89 | 1008.0 |
| 20260904063650 | 63 | 320 | 0.0 | 0.0 | 0.00 | 0.00 | 0.00 | 89 | 1008.0 |
| 20260904063146 | 63 | 320 | 0.0 | 0.0 | 0.00 | 0.00 | 0.00 | 89 | 1008.0 |
| 20260904062648 | 63 | 320 | 0.0 | 0.0 | 0.00 | 0.00 | 0.00 | 89 | 1008.0 |
| 20260904062145 | 63 | 319 | 0.0 | 0.0 | 0.00 | 0.00 | 0.00 | 89 | 1008.0 |
| 20260904061651 | 63 | 319 | 0.0 | 0.0 | 0.00 | 0.00 | 0.00 | 89 | 1008.0 |
| 20260904060638 | 63 | 319 | 0.0 | 0.0 | 0.00 | 0.00 | 0.00 | 89 | 1008.0 |
| 20260904060138 | 63 | 319 | 0.0 | 0.0 | 0.00 | 0.00 | 0.00 | 89 | 1008.0 |
| 20260904055638 | 63 | 319 | 0.0 | 0.0 | 0.00 | 0.00 | 0.00 | 89 | 1008.0 |
| 20260904054631 | 63 | 319 | 0.0 | 0.0 | 0.00 | 0.00 | 0.00 | 89 | 1008.0 |
| 20260904054134 | 63 | 319 | 0.0 | 0.0 | 0.00 | 0.00 | 0.00 | 89 | 1007.9 |
| 20260904053630 | 63 | 319 | 0.0 | 1.0 | 0.00 | 0.00 | 0.00 | 89 | 1007.9 |
| 20260904053128 | 63 | 316 | 0.0 | 2.0 | 0.00 | 0.00 | 0.00 | 89 | 1008.0 |
| 20260904052628 | 63 | 315 | 0.0 | 2.0 | 0.00 | 0.00 | 0.00 | 89 | 1008.0 |
| 20260904052126 | 63 | 292 | 0.0 | 3.0 | 0.00 | 0.00 | 0.00 | 89 | 1008.0 |
| 20260904051625 | 63 | 292 | 0.0 | 3.0 | 0.00 | 0.00 | 0.00 | 89 | 1008.0 |
| 20260904045618 | 62 | 290 | 0.0 | 0.0 | 0.00 | 0.00 | 0.00 | 89 | 1007.9 |
| 20260904045117 | 62 | 290 | 0.0 | 0.0 | 0.00 | 0.00 | 0.00 | 89 | 1007.9 |
| 20260904044616 | 62 | 290 | 0.0 | 0.0 | 0.00 | 0.00 | 0.00 | 89 | 1007.9 |
| 20260904044113 | 62 | 290 | 0.0 | 0.0 | 0.00 | 0.00 | 0.00 | 89 | 1007.9 |
| 20260904043609 | 62 | 290 | 0.0 | 3.0 | 0.00 | 0.00 | 0.00 | 89 | 1007.9 |
| 20260904043107 | 62 | 290 | 0.0 | 3.0 | 0.00 | 0.00 | 0.00 | 89 | 1007.9 |
| 20260904042602 | 62 | 290 | 0.0 | 2.0 | 0.00 | 0.00 | 0.00 | 89 | 1007.9 |
| 20260904042100 | 62 | 290 | 0.0 | 2.0 | 0.00 | 0.00 | 0.00 | 89 | 1007.9 |
| 20260904041058 | 62 | 290 | 0.0 | 2.0 | 0.00 | 0.00 | 0.00 | 89 | 1007.8 |
| 20260904040552 | 62 | 290 | 1.0 | 2.0 | 0.00 | 0.00 | 0.00 | 89 | 1007.8 |
| 20260904040047 | 62 | 290 | 1.0 | 3.0 | 0.00 | 0.00 | 0.00 | 89 | 1007.8 |
| 20260904035548 | 62 | 290 | 0.0 | 3.0 | 0.00 | 0.00 | 0.00 | 88 | 1007.5 |
| 20260904034042 | 62 | 290 | 1.0 | 3.0 | 0.00 | 0.00 | 0.00 | 87 | 1007.4 |
| 20260904033541 | 62 | 290 | 0.0 | 3.0 | 0.00 | 0.00 | 0.00 | 87 | 1007.4 |
| 20260904033040 | 62 | 290 | 0.0 | 3.0 | 0.00 | 0.00 | 0.00 | 87 | 1007.4 |
| 20260904032034 | 62 | 290 | 1.0 | 4.0 | 0.00 | 0.00 | 0.00 | 86 | 1007.4 |
| 20260904031535 | 62 | 290 | 1.0 | 2.0 | 0.00 | 0.00 | 0.00 | 86 | 1007.4 |
| 20260904031035 | 62 | 290 | 1.0 | 4.0 | 0.00 | 0.00 | 0.00 | 86 | 1007.4 |
| 20260904025023 | 63 | 279 | 2.0 | 4.0 | 0.00 | 0.00 | 0.00 | 85 | 1007.4 |
| 20260904024522 | 63 | 281 | 3.0 | 7.0 | 0.00 | 0.00 | 0.00 | 85 | 1007.4 |
| 20260904024027 | 63 | 282 | 3.0 | 7.0 | 0.00 | 0.00 | 0.00 | 84 | 1007.4 |
| 20260904023521 | 63 | 314 | 3.0 | 7.0 | 0.00 | 0.00 | 0.00 | 84 | 1007.4 |
| 20260904023021 | 63 | 301 | 4.0 | 7.0 | 0.00 | 0.00 | 0.00 | 84 | 1007.4 |
| 20260904022524 | 64 | 294 | 4.0 | 8.0 | 0.00 | 0.00 | 0.00 | 83 | 1007.3 |
| 20260904021018 | 64 | 309 | 4.0 | 9.0 | 0.00 | 0.00 | 0.00 | 82 | 1007.2 |
| 20260904020516 | 64 | 303 | 4.0 | 9.0 | 0.00 | 0.00 | 0.00 | 81 | 1007.2 |
| 20260904015513 | 65 | 288 | 4.0 | 9.0 | 0.00 | 0.00 | 0.00 | 80 | 1007.2 |
| 20260904014505 | 65 | 281 | 4.0 | 9.0 | 0.00 | 0.00 | 0.00 | 79 | 1007.2 |
| 20260904014007 | 65 | 309 | 4.0 | 9.0 | 0.00 | 0.00 | 0.00 | 78 | 1007.3 |
| 20260904013502 | 66 | 279 | 4.0 | 8.0 | 0.00 | 0.00 | 0.00 | 78 | 1007.3 |
| 20260904012959 | 66 | 284 | 4.0 | 11.0 | 0.00 | 0.00 | 0.00 | 77 | 1007.3 |
| 20260904012458 | 67 | 295 | 4.0 | 10.0 | 0.00 | 0.00 | 0.00 | 76 | 1007.4 |
| 20260904011956 | 67 | 275 | 4.0 | 10.0 | 0.00 | 0.00 | 0.00 | 75 | 1007.4 |
| 20260904011458 | 67 | 306 | 5.0 | 10.0 | 0.00 | 0.00 | 0.00 | 75 | 1007.4 |
| 20260904010956 | 68 | 307 | 5.0 | 11.0 | 0.00 | 0.00 | 0.00 | 74 | 1007.5 |
| 20260904010457 | 68 | 313 | 5.0 | 12.0 | 0.00 | 0.00 | 0.00 | 74 | 1007.5 |
| 20260904005956 | 69 | 275 | 5.0 | 14.0 | 0.00 | 0.00 | 0.00 | 73 | 1007.5 |
| 20260904005454 | 69 | 293 | 5.0 | 14.0 | 0.00 | 0.00 | 0.00 | 71 | 1007.5 |
| 20260904004958 | 70 | 312 | 4.0 | 11.0 | 0.00 | 0.00 | 0.00 | 69 | 1007.5 |
| 20260904003950 | 71 | 311 | 4.0 | 8.0 | 0.00 | 0.00 | 0.00 | 66 | 1007.6 |
| 20260904002948 | 71 | 315 | 4.0 | 10.0 | 0.00 | 0.00 | 0.00 | 67 | 1007.6 |
| 20260904002447 | 71 | 303 | 5.0 | 11.0 | 0.00 | 0.00 | 0.00 | 67 | 1007.6 |
| 20260904001946 | 71 | 315 | 5.0 | 11.0 | 0.00 | 0.00 | 0.00 | 67 | 1007.6 |
| 20260904001445 | 71 | 324 | 5.0 | 11.0 | 0.00 | 0.00 | 0.00 | 68 | 1007.6 |
| 20260904000941 | 71 | 312 | 5.0 | 11.0 | 0.00 | 0.00 | 0.00 | 67 | 1007.6 |
| 20260904000444 | 71 | 311 | 5.0 | 11.0 | 0.00 | 0.00 | 0.00 | 68 | 1007.6 |
| 20260903235942 | 72 | 301 | 5.0 | 11.0 | 0.00 | 0.00 | 0.00 | 66 | 1007.6 |
| 20260903235441 | 72 | 0 | 5.0 | 10.0 | 0.00 | 0.00 | 0.00 | 65 | 1007.8 |
| 20260903234940 | 72 | 321 | 5.0 | 10.0 | 0.00 | 0.00 | 0.00 | 66 | 1007.8 |
| 20260903234439 | 72 | 319 | 5.0 | 10.0 | 0.00 | 0.00 | 0.00 | 66 | 1007.8 |
| 20260903233936 | 72 | 323 | 5.0 | 11.0 | 0.00 | 0.00 | 0.00 | 67 | 1007.8 |
| 20260903232934 | 72 | 302 | 6.0 | 14.0 | 0.00 | 0.00 | 0.00 | 65 | 1007.8 |
| 20260903231436 | 73 | 303 | 5.0 | 12.0 | 0.00 | 0.00 | 0.00 | 64 | 1008.0 |
| 20260903230940 | 73 | 58 | 5.0 | 11.0 | 0.00 | 0.00 | 0.00 | 65 | 1008.0 |
| 20260903230434 | 73 | 309 | 5.0 | 12.0 | 0.00 | 0.00 | 0.00 | 64 | 1008.0 |
| 20260903225930 | 73 | 312 | 5.0 | 12.0 | 0.00 | 0.00 | 0.00 | 62 | 1008.0 |
| 20260903224929 | 73 | 298 | 5.0 | 12.0 | 0.00 | 0.00 | 0.00 | 65 | 1008.1 |
| 20260903224431 | 73 | 321 | 6.0 | 13.0 | 0.00 | 0.00 | 0.00 | 63 | 1008.1 |
| 20260903223927 | 73 | 0 | 6.0 | 13.0 | 0.00 | 0.00 | 0.00 | 63 | 1008.1 |
| 20260903222424 | 73 | 305 | 7.0 | 13.0 | 0.00 | 0.00 | 0.00 | 62 | 1008.1 |
| 20260903221921 | 74 | 294 | 6.0 | 13.0 | 0.00 | 0.00 | 0.00 | 62 | 1008.1 |
| 20260903221416 | 74 | 326 | 6.0 | 13.0 | 0.00 | 0.00 | 0.00 | 62 | 1008.1 |
| 20260903220917 | 74 | 335 | 6.0 | 12.0 | 0.00 | 0.00 | 0.00 | 62 | 1008.3 |
| 20260903220416 | 74 | 305 | 5.0 | 12.0 | 0.00 | 0.00 | 0.00 | 61 | 1008.3 |
| 20260903215915 | 74 | 338 | 6.0 | 12.0 | 0.00 | 0.00 | 0.00 | 62 | 1008.3 |
| 20260903215413 | 74 | 322 | 6.0 | 12.0 | 0.00 | 0.00 | 0.00 | 62 | 1008.6 |
| 20260903214910 | 73 | 304 | 7.0 | 13.0 | 0.00 | 0.00 | 0.00 | 63 | 1008.6 |
| 20260903214407 | 73 | 310 | 7.0 | 13.0 | 0.00 | 0.00 | 0.00 | 62 | 1008.6 |
| 20260903213906 | 74 | 311 | 5.0 | 12.0 | 0.00 | 0.00 | 0.00 | 61 | 1008.6 |
| 20260903213404 | 75 | 319 | 5.0 | 10.0 | 0.00 | 0.00 | 0.00 | 60 | 1008.6 |
| 20260903212403 | 74 | 308 | 6.0 | 12.0 | 0.00 | 0.00 | 0.00 | 60 | 1008.5 |
| 20260903211901 | 75 | 320 | 5.0 | 12.0 | 0.00 | 0.00 | 0.00 | 60 | 1008.5 |
| 20260903211357 | 76 | 338 | 5.0 | 11.0 | 0.00 | 0.00 | 0.00 | 60 | 1008.6 |
| 20260903210858 | 76 | 313 | 5.0 | 12.0 | 0.00 | 0.00 | 0.00 | 61 | 1008.6 |
| 20260903210356 | 75 | 351 | 5.0 | 12.0 | 0.00 | 0.00 | 0.00 | 61 | 1008.6 |
| 20260903205854 | 76 | 323 | 5.0 | 11.0 | 0.00 | 0.00 | 0.00 | 60 | 1008.6 |
| 20260903205351 | 75 | 312 | 5.0 | 13.0 | 0.00 | 0.00 | 0.00 | 61 | 1008.6 |
| 20260903204848 | 76 | 334 | 5.0 | 13.0 | 0.00 | 0.00 | 0.00 | 60 | 1008.6 |
| 20260903203847 | 76 | 329 | 5.0 | 12.0 | 0.00 | 0.00 | 0.00 | 58 | 1008.6 |
| 20260903203344 | 76 | 341 | 4.0 | 10.0 | 0.00 | 0.00 | 0.00 | 59 | 1008.6 |
| 20260903201844 | 75 | 316 | 5.0 | 10.0 | 0.00 | 0.00 | 0.00 | 60 | 1008.6 |
| 20260903201342 | 76 | 327 | 5.0 | 11.0 | 0.00 | 0.00 | 0.00 | 60 | 1008.6 |
| 20260903200843 | 76 | 313 | 5.0 | 11.0 | 0.00 | 0.00 | 0.00 | 58 | 1008.6 |
| 20260903195843 | 76 | 5 | 5.0 | 11.0 | 0.00 | 0.00 | 0.00 | 59 | 1008.9 |
| 20260903195340 | 76 | 317 | 5.0 | 11.0 | 0.00 | 0.00 | 0.00 | 59 | 1008.9 |
| 20260903194842 | 76 | 312 | 4.0 | 11.0 | 0.00 | 0.00 | 0.00 | 59 | 1008.9 |
| 20260903194338 | 76 | 311 | 4.0 | 9.0 | 0.00 | 0.00 | 0.00 | 59 | 1009.0 |
| 20260903193839 | 76 | 322 | 4.0 | 9.0 | 0.00 | 0.00 | 0.00 | 59 | 1009.0 |
| 20260903193335 | 75 | 305 | 5.0 | 13.0 | 0.00 | 0.00 | 0.00 | 60 | 1009.0 |
| 20260903191828 | 74 | 318 | 5.0 | 12.0 | 0.00 | 0.00 | 0.00 | 61 | 1009.1 |
| 20260903190322 | 74 | 325 | 5.0 | 10.0 | 0.00 | 0.00 | 0.00 | 62 | 1009.2 |
| 20260903185820 | 74 | 22 | 5.0 | 10.0 | 0.00 | 0.00 | 0.00 | 62 | 1009.3 |
| 20260903184318 | 74 | 315 | 5.0 | 13.0 | 0.00 | 0.00 | 0.00 | 62 | 1009.6 |
| 20260903183318 | 74 | 318 | 4.0 | 11.0 | 0.00 | 0.00 | 0.00 | 62 | 1009.6 |
| 20260903182816 | 74 | 320 | 4.0 | 9.0 | 0.00 | 0.00 | 0.00 | 64 | 1009.6 |
| 20260903182312 | 73 | 311 | 4.0 | 8.0 | 0.00 | 0.00 | 0.00 | 62 | 1009.6 |
| 20260903181811 | 73 | 337 | 4.0 | 9.0 | 0.00 | 0.00 | 0.00 | 62 | 1009.6 |
| 20260903181307 | 74 | 309 | 4.0 | 9.0 | 0.00 | 0.00 | 0.00 | 60 | 1009.7 |
| 20260903180804 | 75 | 321 | 4.0 | 8.0 | 0.00 | 0.00 | 0.00 | 59 | 1009.7 |
| 20260903180305 | 75 | 355 | 3.0 | 8.0 | 0.00 | 0.00 | 0.00 | 59 | 1009.7 |
| 20260903175804 | 75 | 13 | 3.0 | 6.0 | 0.00 | 0.00 | 0.00 | 61 | 1009.7 |
| 20260903174759 | 74 | 309 | 3.0 | 6.0 | 0.00 | 0.00 | 0.00 | 61 | 1009.7 |
| 20260903174259 | 73 | 344 | 2.0 | 7.0 | 0.00 | 0.00 | 0.00 | 62 | 1009.7 |
| 20260903173755 | 73 | 334 | 3.0 | 7.0 | 0.00 | 0.00 | 0.00 | 63 | 1009.7 |
| 20260903173251 | 73 | 328 | 2.0 | 6.0 | 0.00 | 0.00 | 0.00 | 63 | 1009.7 |
| 20260903172750 | 73 | 329 | 3.0 | 8.0 | 0.00 | 0.00 | 0.00 | 64 | 1009.8 |
| 20260903172250 | 72 | 327 | 3.0 | 8.0 | 0.00 | 0.00 | 0.00 | 64 | 1009.7 |
| 20260903171751 | 71 | 340 | 2.0 | 6.0 | 0.00 | 0.00 | 0.00 | 66 | 1009.7 |
| 20260903171248 | 70 | 333 | 2.0 | 5.0 | 0.00 | 0.00 | 0.00 | 68 | 1009.7 |
| 20260903170747 | 69 | 333 | 3.0 | 5.0 | 0.00 | 0.00 | 0.00 | 68 | 1009.7 |
| 20260903170246 | 69 | 334 | 3.0 | 6.0 | 0.00 | 0.00 | 0.00 | 70 | 1009.7 |
| 20260903165745 | 69 | 334 | 3.0 | 6.0 | 0.00 | 0.00 | 0.00 | 71 | 1010.0 |
| 20260903164743 | 69 | 317 | 2.0 | 5.0 | 0.00 | 0.00 | 0.00 | 70 | 1010.0 |
| 20260903164242 | 68 | 322 | 2.0 | 5.0 | 0.00 | 0.00 | 0.00 | 73 | 1010.1 |